TimeEST,TemperatureF,Dew PointF,Humidity,Sea Level PressureIn,VisibilityMPH,Wind Direction,Wind SpeedMPH,Gust SpeedMPH,PrecipitationIn,Events,Conditions,WindDirDegrees,DateUTC
12:53 AM,73.0,64.0,73,30.02,10.0,ESE,11.5,-,N/A,,Scattered Clouds,110,2012-12-16 05:53:00
1:53 AM,72.0,64.0,76,30.02,10.0,ESE,9.2,-,N/A,,Partly Cloudy,120,2012-12-16 06:53:00
2:53 AM,72.0,64.0,76,30.01,10.0,ESE,8.1,-,N/A,,Partly Cloudy,120,2012-12-16 07:53:00
3:53 AM,72.0,64.0,76,30.00,10.0,ESE,6.9,-,N/A,,Partly Cloudy,110,2012-12-16 08:53:00
4:53 AM,73.0,64.9,76,30.00,10.0,SE,8.1,-,0.00,,Mostly Cloudy,130,2012-12-16 09:53:00
5:53 AM,72.0,64.0,76,30.01,10.0,SE,3.5,-,N/A,,Scattered Clouds,130,2012-12-16 10:53:00
6:53 AM,73.0,66.0,79,30.01,10.0,SSE,6.9,-,0.00,,Mostly Cloudy,150,2012-12-16 11:53:00
7:53 AM,72.0,66.9,84,30.04,10.0,Calm,Calm,-,0.00,,Mostly Cloudy,0,2012-12-16 12:53:00
8:53 AM,73.9,68.0,82,30.04,10.0,ENE,9.2,-,0.00,Rain,Light Rain,70,2012-12-16 13:53:00
9:13 AM,75.2,68.0,78,30.05,10.0,SE,13.8,-,0.00,,Mostly Cloudy,130,2012-12-16 14:13:00
9:15 AM,75.2,68.0,78,30.05,10.0,ESE,13.8,-,0.00,,Mostly Cloudy,120,2012-12-16 14:15:00
9:43 AM,75.2,66.2,73,30.05,10.0,ESE,12.7,-,0.00,,Mostly Cloudy,120,2012-12-16 14:43:00
9:53 AM,75.9,66.9,74,30.05,10.0,ESE,8.1,-,0.00,,Mostly Cloudy,120,2012-12-16 14:53:00
10:53 AM,75.9,66.0,71,30.04,10.0,ESE,9.2,-,N/A,,Overcast,110,2012-12-16 15:53:00
11:42 AM,75.2,66.2,73,30.03,10.0,ESE,10.4,-,N/A,,Mostly Cloudy,120,2012-12-16 16:42:00
11:53 AM,75.9,68.0,76,30.03,10.0,ESE,13.8,-,N/A,,Mostly Cloudy,110,2012-12-16 16:53:00
12:53 PM,77.0,66.9,71,29.99,10.0,ESE,9.2,-,N/A,,Overcast,120,2012-12-16 17:53:00
1:53 PM,77.0,66.9,71,29.97,10.0,East,9.2,-,N/A,,Overcast,90,2012-12-16 18:53:00
2:53 PM,77.0,66.9,71,29.96,10.0,ESE,8.1,-,N/A,,Mostly Cloudy,120,2012-12-16 19:53:00
3:44 PM,75.2,69.8,83,29.96,10.0,ESE,10.4,-,N/A,,Mostly Cloudy,110,2012-12-16 20:44:00
3:53 PM,77.0,66.0,69,29.96,10.0,SE,9.2,-,N/A,,Mostly Cloudy,140,2012-12-16 20:53:00
4:53 PM,75.9,68.0,76,29.98,10.0,SE,9.2,-,N/A,,Mostly Cloudy,130,2012-12-16 21:53:00
5:53 PM,75.0,68.0,79,29.97,10.0,ESE,6.9,-,N/A,,Mostly Cloudy,120,2012-12-16 22:53:00
6:53 PM,73.9,66.9,79,29.98,10.0,Calm,Calm,-,N/A,,Mostly Cloudy,0,2012-12-16 23:53:00
7:53 PM,73.0,66.0,79,29.98,10.0,ESE,3.5,-,N/A,,Mostly Cloudy,120,2012-12-17 00:53:00
8:53 PM,73.9,68.0,82,29.98,10.0,East,4.6,-,N/A,,Mostly Cloudy,90,2012-12-17 01:53:00
9:26 PM,73.4,68.0,83,29.98,10.0,East,4.6,-,N/A,,Mostly Cloudy,100,2012-12-17 02:26:00
9:53 PM,73.0,68.0,84,29.98,10.0,ESE,5.8,-,N/A,,Mostly Cloudy,110,2012-12-17 02:53:00
10:53 PM,73.9,68.0,82,29.98,10.0,SE,3.5,-,N/A,,Mostly Cloudy,130,2012-12-17 03:53:00
11:53 PM,73.9,66.9,79,29.98,10.0,Calm,Calm,-,N/A,,Mostly Cloudy,0,2012-12-17 04:53:00